Wapiti, WY

8:22 AM MST on January 24, 2017 (GMT -0700)
MNFSW4 | | Change Station
Active Advisory: Special Statement Active Notice: Public Information Statement

Elev 5395 ft 44.47 °N, 109.43 °W | Updated 13 minutes ago

Light Snow
Light Snow Mist
18.0 °F
Feels Like 18.0 °F
N
-
Wind Variable Wind from North

Today
High -- | Low -- °F
--% Chance of Precip.
Yesterday
High -- | Low -- °F
Precip. -- in
Pressure 29.74 in
Visibility 1.8 miles
Clouds Overcast 1300 ft
Dew Point Not available.
Humidity Not available.
Rainfall in
Snow Depth Not available.
7:43 AM 5:16 PM
Waning Crescent, 11% visible
SPECI KCOD 241512Z AUTO 34012KT 1 3/4SM -SN BR OVC013 M08/M09 A2974 RMK AO2 P0000 FZRANO
Pressure 29.74 in
Visibility 1.8 miles
Clouds Overcast 1300 ft
Dew Point Not available.
Humidity Not available.
Rainfall in
Snow Depth Not available.
7:43 AM 5:16 PM
Waning Crescent, 11% visible
SPECI KCOD 241512Z AUTO 34012KT 1 3/4SM -SN BR OVC013 M08/M09 A2974 RMK AO2 P0000 FZRANO

Get Your Daily Forecast Email!

Thanks for signing up!

Be on the lookout for a verification email in your inbox.

You'll start receiving the daily forecast at 8 AM.

×

10-Day Weather Forecast

Almanac

Astronomy

Jan. 24, 2017 Rise Set
Actual Time
Civil Twilight
Nautical Twilight
Astronomical Twilight
Moon
Length of Visible Light
Length of Day
Tomorrow will be .
, % of the Moon is Illuminated

Today's Extremes

State Highs State Lows

Community

WunderPhotos

Upload Photos

1,962,540 photos uploaded!

WunderBlog® & News

Nearby

Air Quality

  Air Quality AQ Index Pollutant
Not available.

Snow Depth

Station Depth Elevation

Earthquake Activity

City Distance Mag. Time & Date
Minimum magnitude displayed is 2.5.

Coastal Water Temperatures

Place Temperature

Stations

Nearby Weather Stations

Station Location Temp. Windchill Dew Point Humidity Wind Precip. Elev Updated Type
                   

Watches & Warnings

Special Statement
Issued: 4:45 AM MST Jan. 24, 2017 – National Weather Service

Snowfall is expected to taper off from north to south this morning.
3 inches have fallen so far in Worland. Total snowfall
accumulation will generally range from 2 to 4 inches with the
highest amounts found over the southern Cody foothills.



445 am MST Tue Jan 24 2017

Snowfall is expected to taper off from north to south this morning.
3 inches have fallen so far in Worland. Total snowfall
accumulation will generally range from 2 to 4 inches with the
highest amounts found over the southern Cody foothills.